• In Portugal
  • List of Countries
  • For 7 days
  • Water Temperature
  • Satellite Maps
  • Weather Map
  • Weather Widgets
  • user-avatar
    Login

    Hourly Weather Saidpur

    Today, 23 September, Saturday

    Time Temperature Precipitation Wind Pressure Humidity
    00:00 +30°C° 0 mm 2 mps 752 mmHg 82%
    01:00 +30°C° 3.1 mm 2 mps 752 mmHg 83%
    02:00 +29°C° 3.1 mm 2 mps 752 mmHg 85%
    03:00 +29°C° 3.1 mm 2 mps 751 mmHg 87%
    04:00 +29°C° 2.6 mm 2 mps 752 mmHg 87%
    05:00 +29°C° 2.6 mm 2 mps 752 mmHg 88%
    06:00 +29°C° 2.6 mm 2 mps 752 mmHg 88%
    07:00 +30°C° 1.3 mm 3 mps 752 mmHg 84%
    08:00 +31°C° 1.3 mm 3 mps 753 mmHg 80%
    09:00 +33°C° 1.3 mm 3 mps 753 mmHg 76%
    10:00 +34°C° 1.3 mm 3 mps 753 mmHg 72%
    11:00 +35°C° 1.3 mm 2 mps 753 mmHg 68%
    12:00 +35°C° 1.3 mm 2 mps 753 mmHg 64%
    13:00 +36°C° 0.2 mm 2 mps 752 mmHg 63%
    14:00 +35°C° 0.2 mm 1 mps 751 mmHg 61%
    15:00 +35°C° 0.2 mm 1 mps 751 mmHg 60%
    16:00 +34°C° 0 mm 1 mps 750 mmHg 64%
    17:00 +32°C° 0 mm 0 mps 750 mmHg 67%
    18:00 +31°C° 0 mm 0 mps 750 mmHg 71%
    19:00 +30°C° 0 mm 0 mps 751 mmHg 72%
    20:00 +30°C° 0 mm 0 mps 751 mmHg 72%
    21:00 +30°C° 0 mm 0 mps 752 mmHg 73%
    22:00 +29°C° 0 mm 0 mps 752 mmHg 75%
    23:00 +31°C° 0 mm 1 mps 752 mmHg 76%

    Tomorrow, 24 September, Sunday

    Time Temperature Precipitation Wind Pressure Humidity
    00:00 +31°C° 0 mm 1 mps 752 mmHg 77%
    01:00 +30°C° 0.5 mm 1 mps 751 mmHg 79%
    02:00 +30°C° 0.5 mm 1 mps 751 mmHg 81%
    03:00 +30°C° 0.5 mm 1 mps 751 mmHg 83%
    04:00 +30°C° 0 mm 1 mps 751 mmHg 84%
    05:00 +29°C° 0 mm 1 mps 751 mmHg 84%
    06:00 +29°C° 0 mm 1 mps 751 mmHg 85%
    07:00 +30°C° 0.2 mm 1 mps 752 mmHg 81%
    08:00 +32°C° 0.2 mm 1 mps 752 mmHg 76%
    09:00 +33°C° 0.2 mm 1 mps 753 mmHg 72%
    10:00 +34°C° 0.4 mm 1 mps 752 mmHg 68%
    11:00 +35°C° 0.4 mm 1 mps 752 mmHg 63%
    12:00 +36°C° 0.4 mm 1 mps 752 mmHg 58%
    13:00 +36°C° 0.3 mm 1 mps 751 mmHg 58%
    14:00 +36°C° 0.3 mm 1 mps 750 mmHg 57%
    15:00 +36°C° 0.3 mm 1 mps 749 mmHg 57%
    16:00 +35°C° 0.6 mm 1 mps 749 mmHg 61%
    17:00 +34°C° 0.6 mm 1 mps 749 mmHg 66%
    18:00 +31°C° 0.6 mm 0 mps 749 mmHg 70%
    19:00 +31°C° 0.3 mm 0 mps 750 mmHg 72%
    20:00 +30°C° 0.3 mm 0 mps 750 mmHg 73%
    21:00 +30°C° 0.3 mm 0 mps 751 mmHg 74%
    22:00 +32°C° 0.4 mm 1 mps 751 mmHg 76%
    23:00 +31°C° 0.4 mm 1 mps 751 mmHg 78%

    Day after tomorrow, 25 September, Monday

    Time Temperature Precipitation Wind Pressure Humidity
    00:00 +31°C° 0.4 mm 1 mps 750 mmHg 79%
    01:00 +31°C° 1 mm 1 mps 750 mmHg 80%
    02:00 +31°C° 1 mm 1 mps 750 mmHg 81%
    03:00 +30°C° 1 mm 1 mps 750 mmHg 82%
    04:00 +30°C° 0.1 mm 1 mps 750 mmHg 82%
    05:00 +30°C° 0.1 mm 1 mps 750 mmHg 82%
    06:00 +30°C° 0.1 mm 1 mps 750 mmHg 83%
    07:00 +31°C° 0.4 mm 1 mps 751 mmHg 79%
    08:00 +32°C° 0.4 mm 1 mps 751 mmHg 75%
    09:00 +33°C° 0.4 mm 1 mps 752 mmHg 71%
    10:00 +34°C° 0.6 mm 1 mps 751 mmHg 67%
    11:00 +33°C° 0.6 mm 0 mps 751 mmHg 63%
    12:00 +34°C° 0.6 mm 0 mps 751 mmHg 59%
    13:00 +34°C° 0.1 mm 0 mps 750 mmHg 58%
    14:00 +34°C° 0.1 mm 0 mps 749 mmHg 57%
    15:00 +36°C° 0.1 mm 1 mps 748 mmHg 57%
    16:00 +33°C° 0.1 mm 0 mps 748 mmHg 60%
    17:00 +32°C° 0.1 mm 0 mps 748 mmHg 64%
    18:00 +31°C° 0.1 mm 0 mps 748 mmHg 67%
    19:00 +31°C° 0.1 mm 0 mps 749 mmHg 68%
    20:00 +31°C° 0.1 mm 0 mps 749 mmHg 69%
    21:00 +30°C° 0.1 mm 0 mps 750 mmHg 70%
    22:00 +30°C° 0.6 mm 0 mps 750 mmHg 72%
    23:00 +30°C° 0.6 mm 0 mps 750 mmHg 74%

    26 September, Tuesday

    Time Temperature Precipitation Wind Pressure Humidity
    00:00 +29°C° 0.6 mm 0 mps 750 mmHg 76%
    01:00 +29°C° 1.3 mm 0 mps 749 mmHg 77%
    02:00 +31°C° 1.3 mm 1 mps 749 mmHg 78%
    03:00 +31°C° 1.3 mm 1 mps 749 mmHg 79%
    04:00 +30°C° 0 mm 1 mps 749 mmHg 80%
    05:00 +30°C° 0 mm 1 mps 749 mmHg 81%
    06:00 +30°C° 0 mm 1 mps 750 mmHg 82%
    07:00 +31°C° 0.1 mm 1 mps 750 mmHg 79%
    08:00 +32°C° 0.1 mm 1 mps 751 mmHg 76%
    09:00 +33°C° 0.1 mm 1 mps 752 mmHg 73%
    10:00 +34°C° 0.4 mm 1 mps 751 mmHg 69%
    11:00 +35°C° 0.4 mm 1 mps 751 mmHg 65%
    12:00 +35°C° 0.4 mm 1 mps 751 mmHg 61%
    13:00 +36°C° 0 mm 1 mps 750 mmHg 60%
    14:00 +36°C° 0 mm 1 mps 749 mmHg 58%
    15:00 +36°C° 0 mm 1 mps 749 mmHg 57%
    16:00 +35°C° 0 mm 1 mps 749 mmHg 61%
    17:00 +34°C° 0 mm 1 mps 749 mmHg 64%
    18:00 +33°C° 0 mm 1 mps 749 mmHg 68%
    19:00 +33°C° 0 mm 1 mps 749 mmHg 69%
    20:00 +32°C° 0 mm 1 mps 750 mmHg 70%
    21:00 +32°C° 0 mm 1 mps 751 mmHg 70%
    22:00 +32°C° 0 mm 1 mps 751 mmHg 71%
    23:00 +32°C° 0 mm 1 mps 750 mmHg 72%

    27 September, Wednesday

    Time Temperature Precipitation Wind Pressure Humidity
    00:00 +29°C° 0 mm 0 mps 750 mmHg 72%
    01:00 +29°C° 0 mm 0 mps 750 mmHg 74%
    02:00 +29°C° 0 mm 0 mps 750 mmHg 75%
    03:00 +29°C° 0 mm 0 mps 749 mmHg 77%
    04:00 +28°C° 0.1 mm 0 mps 750 mmHg 78%
    05:00 +28°C° 0.1 mm 0 mps 750 mmHg 79%
    06:00 +28°C° 0.1 mm 0 mps 750 mmHg 80%
    07:00 +31°C° 0.4 mm 1 mps 751 mmHg 77%
    08:00 +32°C° 0.4 mm 1 mps 751 mmHg 73%
    09:00 +33°C° 0.4 mm 1 mps 752 mmHg 70%
    10:00 +34°C° 1.2 mm 1 mps 752 mmHg 66%
    11:00 +35°C° 1.2 mm 1 mps 751 mmHg 63%
    12:00 +36°C° 1.2 mm 1 mps 751 mmHg 59%
    13:00 +36°C° 0.2 mm 1 mps 750 mmHg 59%
    14:00 +36°C° 0.2 mm 1 mps 750 mmHg 59%
    15:00 +36°C° 0.2 mm 1 mps 749 mmHg 59%
    16:00 +35°C° 0 mm 1 mps 749 mmHg 62%
    17:00 +34°C° 0 mm 1 mps 749 mmHg 65%
    18:00 +33°C° 0 mm 1 mps 749 mmHg 69%
    19:00 +33°C° 0 mm 1 mps 750 mmHg 70%
    20:00 +32°C° 0 mm 1 mps 751 mmHg 71%
    21:00 +32°C° 0 mm 1 mps 751 mmHg 73%
    22:00 +31°C° 0.1 mm 1 mps 751 mmHg 74%
    23:00 +31°C° 0.1 mm 1 mps 751 mmHg 76%

    28 September, Thursday

    Time Temperature Precipitation Wind Pressure Humidity
    00:00 +31°C° 0.1 mm 1 mps 751 mmHg 77%
    01:00 +30°C° 1 mm 1 mps 750 mmHg 79%
    02:00 +30°C° 1 mm 1 mps 750 mmHg 81%
    03:00 +30°C° 1 mm 1 mps 750 mmHg 83%
    04:00 +30°C° 1.3 mm 1 mps 750 mmHg 84%
    05:00 +30°C° 1.3 mm 1 mps 750 mmHg 85%
    06:00 +29°C° 1.3 mm 1 mps 750 mmHg 86%
    07:00 +30°C° 0.6 mm 1 mps 751 mmHg 83%
    08:00 +31°C° 0.6 mm 1 mps 752 mmHg 80%
    09:00 +32°C° 0.6 mm 1 mps 752 mmHg 77%
    10:00 +33°C° 0.7 mm 1 mps 752 mmHg 72%
    11:00 +33°C° 0.7 mm 1 mps 751 mmHg 68%
    12:00 +34°C° 0.7 mm 1 mps 751 mmHg 64%
    13:00 +35°C° 0 mm 2 mps 750 mmHg 63%
    14:00 +36°C° 0 mm 2 mps 750 mmHg 62%
    15:00 +36°C° 0 mm 2 mps 749 mmHg 61%
    16:00 +35°C° 0 mm 2 mps 749 mmHg 64%
    17:00 +34°C° 0 mm 2 mps 750 mmHg 68%
    18:00 +32°C° 0 mm 2 mps 750 mmHg 72%
    19:00 +31°C° 0 mm 2 mps 750 mmHg 74%
    20:00 +31°C° 0 mm 2 mps 751 mmHg 76%
    21:00 +30°C° 0 mm 2 mps 751 mmHg 78%
    22:00 +30°C° 1.6 mm 2 mps 751 mmHg 81%
    23:00 +30°C° 1.6 mm 2 mps 751 mmHg 84%
    Show more